Location: Strawberry
(45.6646°N, 111.9596°W)
Time: 11:16:20
(UTC+00:00)

O/OREOS (USA 219) - Visible Passes

Search period start: 04 December 2022 00:00
Search period end: 14 December 2022 00:00
Orbit: 621 x 646 km, 72.0° (Epoch: 22 May)

Date Brightness Start Highest point End Pass type
(mag) Time Alt. Az. Time Alt. Az. Time Alt. Az.
04 Dec ? 12:08:51 10° SSE 12:12:16 22° ESE 12:15:43 10° NE visible
04 Dec ? 13:47:10 10° SW 13:51:24 42° WNW 13:55:41 10° NNE visible
05 Dec ? 12:29:49 10° S 12:34:05 47° ESE 12:38:24 10° NE visible
05 Dec ? 14:10:15 10° WSW 14:13:45 22° NW 14:17:16 10° N visible
06 Dec ? 11:16:02 10° ESE 11:17:22 11° E 11:18:43 10° E visible
06 Dec ? 12:51:36 10° SSW 12:56:04 80° WNW 13:00:35 10° NNE visible
07 Dec ? 11:38:37 24° ESE 11:39:02 24° ESE 11:42:40 10° NE visible
07 Dec ? 13:16:13 24° WSW 13:18:14 38° WNW 13:22:27 10° N visible
08 Dec ? 12:02:10 38° ENE 12:02:10 38° ENE 12:05:15 10° NNE visible
08 Dec ? 13:39:43 19° WNW 13:40:36 20° NW 13:43:58 10° N visible
09 Dec ? 12:25:04 30° NNE 12:25:04 30° NNE 12:27:23 10° NNE visible
09 Dec ? 14:02:35 11° NW 14:03:10 11° NW 14:04:35 10° NNW visible
10 Dec ? 12:47:37 19° N 12:47:37 19° N 12:49:13 10° N visible
11 Dec ? 13:09:56 13° NNW 13:09:56 13° NNW 13:10:40 10° N visible
